Time,TemperatureF,DewpointF,PressureIn,WindDirection,WindDirectionDegrees,WindSpeedMPH,WindSpeedGustMPH,Humidity,HourlyPrecipIn,Conditions,Clouds,dailyrainin,SoftwareType,DateUTC
2013-04-14 00:03:00,43.0,40.0,-100.00,West,260,1.0,1.0,89,0.00,,,-99.99,,2013-04-14 04:03:00,
2013-04-14 00:12:00,44.0,41.0,-100.00,WNW,285,2.0,8.0,88,0.00,,,-99.99,,2013-04-14 04:12:00,
2013-04-14 00:23:00,45.0,39.0,-100.00,North,350,2.0,10.0,77,0.00,,,-99.99,,2013-04-14 04:23:00,
2013-04-14 00:33:00,45.0,38.0,-100.00,North,5,2.0,7.0,74,0.00,,,-99.99,,2013-04-14 04:33:00,
2013-04-14 00:43:00,45.0,37.0,-100.00,NNW,330,1.0,4.0,72,0.00,,,-99.99,,2013-04-14 04:43:00,
2013-04-14 00:52:00,45.0,36.0,-100.00,North,350,1.0,3.0,69,0.00,,,-99.99,,2013-04-14 04:52:00,
2013-04-14 01:03:00,45.0,36.0,-100.00,SSW,200,1.0,2.0,71,0.00,,,-99.99,,2013-04-14 05:03:00,
2013-04-14 01:12:00,44.0,37.0,-100.00,South,185,0.0,1.0,74,0.00,,,-99.99,,2013-04-14 05:12:00,
2013-04-14 01:22:00,44.0,37.0,-100.00,North,355,0.0,1.0,76,0.00,,,-99.99,,2013-04-14 05:22:00,
2013-04-14 01:32:00,44.0,37.0,-100.00,NNW,330,0.0,1.0,78,0.00,,,-99.99,,2013-04-14 05:32:00,
2013-04-14 01:42:00,43.0,37.0,-100.00,SW,235,1.0,2.0,80,0.00,,,-99.99,,2013-04-14 05:42:00,
2013-04-14 01:52:00,42.0,38.0,-100.00,SW,225,2.0,4.0,84,0.00,,,-99.99,,2013-04-14 05:52:00,
2013-04-14 02:02:00,43.0,38.0,-100.00,North,-999,-999.0,-999.0,83,0.00,,,-99.99,,2013-04-14 06:02:00,
2013-04-14 02:12:00,43.0,38.0,-100.00,East,100,0.0,2.0,83,0.00,,,-99.99,,2013-04-14 06:12:00,
2013-04-14 02:22:00,42.0,38.0,-100.00,East,95,1.0,2.0,83,0.00,,,-99.99,,2013-04-14 06:22:00,
2013-04-14 02:32:00,42.0,38.0,-100.00,North,-999,-999.0,-999.0,84,-99.99,,,-99.99,,2013-04-14 06:32:00,
2013-04-14 02:42:00,42.0,38.0,-100.00,South,180,0.0,1.0,85,0.00,,,-99.99,,2013-04-14 06:42:00,
2013-04-14 03:02:00,41.0,38.0,-100.00,South,170,1.0,1.0,86,0.00,,,-99.99,,2013-04-14 07:02:00,
2013-04-14 03:12:00,41.0,38.0,-100.00,SSE,165,1.0,2.0,88,0.00,,,-99.99,,2013-04-14 07:12:00,
2013-04-14 03:22:00,41.0,38.0,-100.00,SE,135,0.0,2.0,88,0.00,,,-99.99,,2013-04-14 07:22:00,
2013-04-14 03:32:00,41.0,38.0,-100.00,SE,135,0.0,2.0,89,0.00,,,-99.99,,2013-04-14 07:32:00,
2013-04-14 03:42:00,40.0,38.0,-100.00,ENE,65,1.0,2.0,89,0.00,,,-99.99,,2013-04-14 07:42:00,
2013-04-14 03:52:00,40.0,37.0,-100.00,West,280,1.0,1.0,89,0.00,,,-99.99,,2013-04-14 07:52:00,
2013-04-14 04:02:00,40.0,37.0,-100.00,South,170,1.0,1.0,90,0.00,,,-99.99,,2013-04-14 08:02:00,
2013-04-14 04:12:00,39.0,36.0,-100.00,WNW,285,1.0,1.0,91,0.00,,,-99.99,,2013-04-14 08:12:00,
2013-04-14 04:22:00,39.0,37.0,-100.00,West,265,1.0,2.0,91,0.00,,,-99.99,,2013-04-14 08:22:00,
2013-04-14 04:32:00,39.0,37.0,-100.00,South,175,1.0,2.0,92,0.00,,,-99.99,,2013-04-14 08:32:00,
2013-04-14 04:42:00,39.0,37.0,-100.00,SW,235,1.0,1.0,92,0.00,,,-99.99,,2013-04-14 08:42:00,
2013-04-14 04:52:00,39.0,37.0,-100.00,SSW,195,1.0,1.0,92,0.00,,,-99.99,,2013-04-14 08:52:00,
2013-04-14 05:03:00,39.0,37.0,-100.00,SSW,200,1.0,2.0,92,0.00,,,-99.99,,2013-04-14 09:03:00,
2013-04-14 05:12:00,39.0,37.0,-100.00,South,175,1.0,1.0,93,0.00,,,-99.99,,2013-04-14 09:12:00,
2013-04-14 05:22:00,39.0,38.0,-100.00,ENE,65,0.0,2.0,93,0.00,,,-99.99,,2013-04-14 09:22:00,
2013-04-14 05:33:00,39.0,38.0,-100.00,North,355,0.0,1.0,93,0.00,,,-99.99,,2013-04-14 09:33:00,
2013-04-14 05:42:00,40.0,38.0,-100.00,ESE,115,1.0,2.0,93,0.00,,,-99.99,,2013-04-14 09:42:00,
2013-04-14 05:53:00,40.0,38.0,-100.00,NW,305,1.0,3.0,93,0.00,,,-99.99,,2013-04-14 09:53:00,
2013-04-14 06:03:00,40.0,38.0,-100.00,West,260,1.0,2.0,93,0.00,,,-99.99,,2013-04-14 10:03:00,
2013-04-14 06:12:00,40.0,38.0,-100.00,NW,325,0.0,1.0,93,0.00,,,-99.99,,2013-04-14 10:12:00,
2013-04-14 06:23:00,40.0,38.0,-100.00,NW,315,1.0,1.0,93,0.00,,,-99.99,,2013-04-14 10:23:00,
2013-04-14 06:33:00,40.0,38.0,-100.00,SE,135,1.0,1.0,93,0.00,,,-99.99,,2013-04-14 10:33:00,
2013-04-14 06:42:00,40.0,38.0,-100.00,SSE,165,1.0,1.0,92,0.01,,,-99.99,,2013-04-14 10:42:00,
2013-04-14 06:52:00,40.0,38.0,-100.00,South,185,1.0,2.0,93,0.00,,,-99.99,,2013-04-14 10:52:00,
2013-04-14 07:02:00,41.0,39.0,-100.00,South,180,1.0,2.0,93,0.00,,,-99.99,,2013-04-14 11:02:00,
2013-04-14 07:12:00,41.0,39.0,-100.00,SSE,150,1.0,1.0,93,0.00,,,-99.99,,2013-04-14 11:12:00,
2013-04-14 07:22:00,41.0,39.0,-100.00,South,170,2.0,2.0,92,0.00,,,-99.99,,2013-04-14 11:22:00,
2013-04-14 07:32:00,41.0,40.0,-100.00,SSE,165,1.0,2.0,93,0.00,,,-99.99,,2013-04-14 11:32:00,
2013-04-14 07:42:00,42.0,40.0,-100.00,SW,215,1.0,2.0,92,0.00,,,-99.99,,2013-04-14 11:42:00,
2013-04-14 07:52:00,44.0,40.0,-100.00,SW,225,4.0,8.0,85,0.00,,,-99.99,,2013-04-14 11:52:00,
2013-04-14 08:02:00,44.0,38.0,-100.00,WSW,240,4.0,8.0,79,0.00,,,-99.99,,2013-04-14 12:02:00,
2013-04-14 08:12:00,46.0,36.0,-100.00,West,270,4.0,8.0,68,0.00,,,-99.99,,2013-04-14 12:12:00,
2013-04-14 08:22:00,46.0,35.0,-100.00,West,275,6.0,12.0,66,0.00,,,-99.99,,2013-04-14 12:22:00,
2013-04-14 08:32:00,45.0,36.0,-100.00,WSW,245,3.0,9.0,68,0.00,,,-99.99,,2013-04-14 12:32:00,
2013-04-14 08:42:00,47.0,36.0,-100.00,West,260,3.0,7.0,65,0.00,,,-99.99,,2013-04-14 12:42:00,
2013-04-14 08:52:00,48.0,35.0,-100.00,WSW,250,4.0,9.0,60,0.00,,,-99.99,,2013-04-14 12:52:00,
2013-04-14 09:02:00,48.0,33.0,-100.00,WSW,250,6.0,9.0,56,0.00,,,-99.99,,2013-04-14 13:02:00,
2013-04-14 09:12:00,47.0,33.0,-100.00,North,-999,-999.0,-999.0,56,0.00,,,-99.99,,2013-04-14 13:12:00,
2013-04-14 09:22:00,47.0,32.0,-100.00,West,280,4.0,9.0,56,0.00,,,-99.99,,2013-04-14 13:22:00,
2013-04-14 09:33:00,46.0,31.0,-100.00,WNW,290,7.0,17.0,54,0.00,,,-99.99,,2013-04-14 13:33:00,
2013-04-14 09:42:00,46.0,31.0,-100.00,West,275,4.0,13.0,55,0.00,,,-99.99,,2013-04-14 13:42:00,
2013-04-14 10:02:00,46.0,31.0,-100.00,SSW,210,4.0,10.0,56,0.00,,,-99.99,,2013-04-14 14:02:00,
2013-04-14 10:12:00,46.0,30.0,-100.00,WSW,250,7.0,12.0,52,0.00,,,-99.99,,2013-04-14 14:12:00,
2013-04-14 10:22:00,47.0,30.0,-100.00,West,265,8.0,13.0,51,0.00,,,-99.99,,2013-04-14 14:22:00,
2013-04-14 10:32:00,47.0,30.0,-100.00,West,280,4.0,12.0,50,0.00,,,-99.99,,2013-04-14 14:32:00,
2013-04-14 10:42:00,49.0,31.0,-100.00,West,260,6.0,12.0,48,0.00,,,-99.99,,2013-04-14 14:42:00,
2013-04-14 10:52:00,50.0,29.0,-100.00,North,-999,-999.0,-999.0,45,-99.99,,,-99.99,,2013-04-14 14:52:00,
2013-04-14 11:02:00,50.0,29.0,-100.00,WNW,290,7.0,18.0,44,0.00,,,-99.99,,2013-04-14 15:02:00,
2013-04-14 11:12:00,50.0,29.0,-100.00,NNW,330,9.0,15.0,43,0.00,,,-99.99,,2013-04-14 15:12:00,
2013-04-14 11:22:00,51.0,29.0,-100.00,West,275,8.0,12.0,42,0.00,,,-99.99,,2013-04-14 15:22:00,
2013-04-14 11:33:00,51.0,30.0,-100.00,West,265,6.0,17.0,43,0.00,,,-99.99,,2013-04-14 15:33:00,
2013-04-14 11:43:00,51.0,28.0,-100.00,WSW,255,7.0,17.0,41,0.00,,,-99.99,,2013-04-14 15:43:00,
2013-04-14 11:53:00,51.0,28.0,-100.00,West,270,6.0,16.0,41,0.00,,,-99.99,,2013-04-14 15:53:00,
2013-04-14 12:04:00,50.0,28.0,-100.00,West,275,9.0,14.0,42,0.00,,,-99.99,,2013-04-14 16:04:00,
2013-04-14 12:13:00,51.0,28.0,-100.00,WSW,245,9.0,20.0,41,0.00,,,-99.99,,2013-04-14 16:13:00,
2013-04-14 12:23:00,51.0,28.0,-100.00,NNW,345,7.0,20.0,41,0.00,,,-99.99,,2013-04-14 16:23:00,
2013-04-14 12:33:00,51.0,29.0,-100.00,West,270,7.0,14.0,42,0.00,,,-99.99,,2013-04-14 16:33:00,
2013-04-14 12:43:00,50.0,26.0,-100.00,WSW,250,4.0,15.0,39,0.00,,,-99.99,,2013-04-14 16:43:00,
2013-04-14 12:53:00,52.0,27.0,-100.00,NNW,340,7.0,16.0,38,0.00,,,-99.99,,2013-04-14 16:53:00,
2013-04-14 13:02:00,51.0,27.0,-100.00,WNW,295,9.0,15.0,39,0.00,,,-99.99,,2013-04-14 17:02:00,
2013-04-14 13:13:00,51.0,27.0,-100.00,WNW,290,6.0,14.0,38,0.00,,,-99.99,,2013-04-14 17:13:00,
2013-04-14 13:22:00,52.0,27.0,-100.00,West,275,9.0,20.0,37,0.00,,,-99.99,,2013-04-14 17:22:00,
2013-04-14 13:33:00,51.0,27.0,-100.00,WSW,240,6.0,13.0,40,0.00,,,-99.99,,2013-04-14 17:33:00,
2013-04-14 13:42:00,51.0,28.0,-100.00,WNW,295,7.0,11.0,40,0.00,,,-99.99,,2013-04-14 17:42:00,
2013-04-14 13:52:00,54.0,26.0,-100.00,West,275,9.0,20.0,34,0.00,,,-99.99,,2013-04-14 17:52:00,
2013-04-14 14:03:00,53.0,26.0,-100.00,WNW,295,6.0,14.0,34,0.00,,,-99.99,,2013-04-14 18:03:00,
2013-04-14 14:12:00,52.0,28.0,-100.00,WNW,295,10.0,14.0,38,0.00,,,-99.99,,2013-04-14 18:12:00,
2013-04-14 14:22:00,52.0,28.0,-100.00,NNE,30,2.0,18.0,38,0.00,,,-99.99,,2013-04-14 18:22:00,
2013-04-14 14:33:00,51.0,26.0,-100.00,WNW,290,7.0,14.0,37,0.00,,,-99.99,,2013-04-14 18:33:00,
2013-04-14 14:43:00,50.0,26.0,-100.00,WSW,245,6.0,15.0,39,0.00,,,-99.99,,2013-04-14 18:43:00,
2013-04-14 14:52:00,49.0,26.0,-100.00,WNW,290,6.0,19.0,40,0.00,,,-99.99,,2013-04-14 18:52:00,
2013-04-14 15:03:00,51.0,26.0,-100.00,WNW,285,6.0,14.0,38,0.00,,,-99.99,,2013-04-14 19:03:00,
2013-04-14 15:22:00,51.0,27.0,-100.00,West,270,6.0,16.0,38,0.00,,,-99.99,,2013-04-14 19:22:00,
2013-04-14 15:32:00,51.0,27.0,-100.00,West,270,6.0,13.0,39,0.00,,,-99.99,,2013-04-14 19:32:00,
2013-04-14 15:42:00,50.0,26.0,-100.00,WNW,295,7.0,17.0,39,0.00,,,-99.99,,2013-04-14 19:42:00,
2013-04-14 15:52:00,51.0,27.0,-100.00,West,265,6.0,13.0,38,0.00,,,-99.99,,2013-04-14 19:52:00,
2013-04-14 16:03:00,50.0,26.0,-100.00,West,270,5.0,17.0,38,0.00,,,-99.99,,2013-04-14 20:03:00,
2013-04-14 16:13:00,50.0,25.0,-100.00,WNW,285,5.0,16.0,36,0.00,,,-99.99,,2013-04-14 20:13:00,
2013-04-14 16:22:00,50.0,25.0,-100.00,NNW,345,10.0,17.0,37,0.00,,,-99.99,,2013-04-14 20:22:00,
2013-04-14 16:33:00,51.0,27.0,-100.00,North,-999,-999.0,-999.0,39,-99.99,,,-99.99,,2013-04-14 20:33:00,
2013-04-14 16:43:00,51.0,27.0,-100.00,WNW,285,7.0,17.0,40,0.00,,,-99.99,,2013-04-14 20:43:00,
2013-04-14 16:52:00,50.0,27.0,-100.00,NNW,340,10.0,17.0,40,0.00,,,-99.99,,2013-04-14 20:52:00,
2013-04-14 17:02:00,49.0,27.0,-100.00,NW,320,6.0,19.0,42,0.00,,,-99.99,,2013-04-14 21:02:00,
2013-04-14 17:12:00,49.0,27.0,-100.00,North,-999,-999.0,-999.0,42,0.00,,,-99.99,,2013-04-14 21:12:00,
2013-04-14 17:23:00,49.0,27.0,-100.00,West,275,7.0,13.0,41,0.00,,,-99.99,,2013-04-14 21:23:00,
2013-04-14 17:33:00,49.0,27.0,-100.00,WNW,300,6.0,11.0,41,0.00,,,-99.99,,2013-04-14 21:33:00,
2013-04-14 17:43:00,49.0,27.0,-100.00,NNW,335,6.0,12.0,42,0.00,,,-99.99,,2013-04-14 21:43:00,
2013-04-14 17:53:00,49.0,27.0,-100.00,West,275,4.0,10.0,42,0.00,,,-99.99,,2013-04-14 21:53:00,
2013-04-14 18:03:00,48.0,26.0,-100.00,West,280,3.0,10.0,42,0.00,,,-99.99,,2013-04-14 22:03:00,
2013-04-14 18:13:00,48.0,26.0,-100.00,WNW,295,4.0,9.0,41,0.00,,,-99.99,,2013-04-14 22:13:00,
2013-04-14 18:23:00,49.0,26.0,-100.00,WNW,285,5.0,10.0,41,0.00,,,-99.99,,2013-04-14 22:23:00,
2013-04-14 18:33:00,49.0,26.0,-100.00,WNW,290,4.0,11.0,41,0.00,,,-99.99,,2013-04-14 22:33:00,
2013-04-14 18:43:00,49.0,26.0,-100.00,West,270,3.0,10.0,40,0.00,,,-99.99,,2013-04-14 22:43:00,
2013-04-14 18:52:00,49.0,26.0,-100.00,NNW,335,4.0,9.0,40,0.00,,,-99.99,,2013-04-14 22:52:00,
2013-04-14 19:02:00,49.0,27.0,-100.00,West,280,5.0,14.0,42,0.00,,,-99.99,,2013-04-14 23:02:00,
2013-04-14 19:12:00,48.0,25.0,-100.00,WNW,285,4.0,9.0,39,0.00,,,-99.99,,2013-04-14 23:12:00,
2013-04-14 19:22:00,47.0,25.0,-100.00,WNW,285,4.0,11.0,41,0.00,,,-99.99,,2013-04-14 23:22:00,
2013-04-14 19:33:00,47.0,25.0,-100.00,NW,320,5.0,9.0,41,0.00,,,-99.99,,2013-04-14 23:33:00,
2013-04-14 19:43:00,47.0,26.0,-100.00,NNW,340,4.0,9.0,43,0.00,,,-99.99,,2013-04-14 23:43:00,
2013-04-14 19:52:00,46.0,29.0,-100.00,North,5,2.0,10.0,51,0.00,,,-99.99,,2013-04-14 23:52:00,
2013-04-14 20:02:00,46.0,30.0,-100.00,NNW,345,2.0,8.0,52,0.00,,,-99.99,,2013-04-15 00:02:00,
2013-04-14 20:12:00,45.0,30.0,-100.00,NNW,335,2.0,5.0,54,0.00,,,-99.99,,2013-04-15 00:12:00,
2013-04-14 20:23:00,45.0,30.0,-100.00,NW,315,2.0,5.0,56,0.00,,,-99.99,,2013-04-15 00:23:00,
2013-04-14 20:33:00,44.0,30.0,-100.00,NNW,335,2.0,4.0,56,0.00,,,-99.99,,2013-04-15 00:33:00,
2013-04-14 20:42:00,44.0,29.0,-100.00,NNW,345,2.0,7.0,54,0.00,,,-99.99,,2013-04-15 00:42:00,
2013-04-14 20:52:00,45.0,28.0,-100.00,NNW,335,3.0,7.0,51,0.00,,,-99.99,,2013-04-15 00:52:00,
2013-04-14 21:02:00,45.0,28.0,-100.00,NNE,20,5.0,10.0,51,0.00,,,-99.99,,2013-04-15 01:02:00,
2013-04-14 21:12:00,44.0,30.0,-100.00,North,0,4.0,8.0,55,0.00,,,-99.99,,2013-04-15 01:12:00,
2013-04-14 21:23:00,44.0,30.0,-100.00,NW,315,2.0,7.0,57,0.00,,,-99.99,,2013-04-15 01:23:00,
2013-04-14 21:33:00,44.0,30.0,-100.00,NW,310,2.0,7.0,59,0.00,,,-99.99,,2013-04-15 01:33:00,
2013-04-14 21:42:00,43.0,30.0,-100.00,NW,325,2.0,7.0,59,0.00,,,-99.99,,2013-04-15 01:42:00,
2013-04-14 21:52:00,43.0,31.0,-100.00,NNW,335,1.0,9.0,61,0.00,,,-99.99,,2013-04-15 01:52:00,
2013-04-14 22:03:00,43.0,30.0,-100.00,NNW,340,4.0,6.0,60,0.00,,,-99.99,,2013-04-15 02:03:00,
2013-04-14 22:12:00,42.0,31.0,-100.00,NNW,340,1.0,4.0,64,0.00,,,-99.99,,2013-04-15 02:12:00,
2013-04-14 22:22:00,42.0,31.0,-100.00,NNW,330,0.0,4.0,65,0.00,,,-99.99,,2013-04-15 02:22:00,
2013-04-14 22:32:00,40.0,31.0,-100.00,West,280,1.0,4.0,68,0.00,,,-99.99,,2013-04-15 02:32:00,
2013-04-14 22:42:00,40.0,31.0,-100.00,NW,310,1.0,2.0,71,0.00,,,-99.99,,2013-04-15 02:42:00,
2013-04-14 23:03:00,38.0,31.0,-100.00,West,270,1.0,4.0,74,0.00,,,-99.99,,2013-04-15 03:03:00,
2013-04-14 23:12:00,37.0,30.0,-100.00,NNW,330,1.0,2.0,75,0.00,,,-99.99,,2013-04-15 03:12:00,
2013-04-14 23:22:00,37.0,31.0,-100.00,NW,320,0.0,2.0,75,0.00,,,-99.99,,2013-04-15 03:22:00,
2013-04-14 23:33:00,36.0,30.0,-100.00,SW,215,0.0,1.0,77,0.00,,,-99.99,,2013-04-15 03:33:00,
2013-04-14 23:43:00,36.0,30.0,-100.00,SW,215,0.0,1.0,78,0.00,,,-99.99,,2013-04-15 03:43:00,
2013-04-14 23:54:00,35.0,30.0,-100.00,North,-999,-999.0,-999.0,82,0.00,,,-99.99,,2013-04-15 03:54:00,